Regional Weather Roundup
Issued by NWS

Home | Current Version | Previous Version | Graphics & Text | Print | Product List | Glossary On
Versions: 1 2 3 4 5 6 7 8 9 10 11 12 13 14 15 16 17 18 19 20 21 22 23 24 25 26 27 28 29 30 31 32 33 34 35 36 37 38 39 40 41 42 43 44 45 46 47 48 49 50
000
ASUS43 KFSD 242202
RWRSD

WEATHER ROUNDUP FOR SOUTH DAKOTA
NATIONAL WEATHER SERVICE SIOUX FALLS SD
500 PM CDT SAT SEP 24 2016

NOTE: "FAIR" INDICATES FEW OR NO CLOUDS BELOW 12,000 FEET WITH NO
SIGNIFICANT WEATHER AND/OR OBSTRUCTIONS TO VISIBILITY.


SDZ001>005-009-010-012>017-242300-
NORTHWEST AND NORTH CENTRAL SOUTH DAKOTA

CITY           SKY/WX    TMP DP  RH WIND       PRES   REMARKS
BUFFALO          N/A     55  53  93 W25G33    29.70R
FAITH            N/A     67  46  47 W24G32    29.77R
MOBRIDGE       SUNNY     78  46  32 S18G25    29.72R
$$

SDZ012>016-024>037-041>051-057-063-072>074-242300-
SOUTHWEST AND SOUTH CENTRAL SOUTH DAKOTA

CITY           SKY/WX    TMP DP  RH WIND       PRES   REMARKS
RAPID CTY ARPT SUNNY     64  40  41 W20       29.87R
PIERRE         SUNNY     76  44  32 SW14G23   29.78R
CUSTER         CLOUDY    43  37  79 W23G31    29.97R
ELLSWORTH AFB  MOSUNNY   62  41  45 NW21      29.87R
PHILIP         SUNNY     72  40  31 SW31G45   29.82R
PINE RIDGE     SUNNY     63  43  48 W24G43    29.94R
WINNER         FAIR      80  39  23 W16       29.83S
$$

SDZ004>011-016>023-039-040-242300-
NORTHEAST SOUTH DAKOTA

CITY           SKY/WX    TMP DP  RH WIND       PRES   REMARKS
ABERDEEN       CLOUDY    81  61  50 S20G25    29.76F
WATERTOWN      LGT RAIN  70  68  93 S7        29.84S
SISSETON         N/A     77  67  71 S13       29.81R
$$

SDZ017-020-022-023-036>040-048>070-242300-
SOUTHEAST SOUTH DAKOTA

CITY           SKY/WX    TMP DP  RH WIND       PRES   REMARKS
SIOUX FALLS    CLOUDY    70  66  87 S13       29.86F
HURON          CLOUDY    79  59  50 S14G20    29.79F
CHAMBERLAIN    SUNNY     80  45  28 SW10      29.81S
MITCHELL       MOSUNNY   80  59  48 S13G18    29.83S
YANKTON        PTSUNNY   73  70  88 S9        29.85S
$$

ABBREVIATIONS USED IN REMARKS
   TC - TEMPERATURE IN CELSIUS
  WCI - WIND CHILL INDEX
   HX - HEAT INDEX
  VSB - VISIBILITY




USA.gov is the U.S. government's official web portal to all federal, state and local government web resources and services.